Clarksville, TN

8:11 PM CDT on May 26, 2017 (GMT -0500)
Outlaw

Weather History for KCKV - October, 2014

Change the Weather History Date:

Tuesday, October 14, 2014

  Actual Average Record
Temperature  
Mean Temperature 60 °F 59 °F  
Max Temperature 66 °F 72 °F 93 °F (1989)
Min Temperature 54 °F 47 °F 27 °F (1979)
Degree Days  
Heating Degree Days 5 6  
Month to date heating degree days 47 67  
Since 1 July heating degree days 73 96  
Cooling Degree Days 0 1  
Month to date cooling degree days 34 20  
Year to date cooling degree days 1419  
Growing Degree Days 10 (Base 50)    
Moisture  
Dew Point 56 °F    
Average Humidity 82    
Maximum Humidity 97    
Minimum Humidity 67    
Precipitation  
Precipitation 0.47 in 0.13 in 2.20 in (1970)
Month to date precipitation 5.88 1.80  
Year to date precipitation 38.46  
Sea Level Pressure  
Sea Level Pressure 29.67 in    
Wind  
Wind Speed 12 mph (SW)    
Max Wind Speed 22 mph    
Max Gust Speed 28 mph    
Visibility 9 miles    
Events Rain    
T = Trace of Precipitation, MM = Missing Value Source: NWS Daily Summary

Daily Weather History Graph

Daily Weather History Graph

Search for Another Location

Airport or City:

Trip Planner

Search our weather history database for the weather conditions in past years. The results will help you decide how hot, cold, wet, or windy it might be!

Date:

Astronomy

Oct. 14, 2014 Rise Set
Actual Time 6:56 AM CDT 6:14 PM CDT
Civil Twilight 6:30 AM CDT 6:40 PM CDT
Nautical Twilight 6:00 AM CDT 7:10 PM CDT
Astronomical Twilight 5:30 AM CDT 7:40 PM CDT
Moon 11:24 PM CDT (10/14) 12:52 PM CDT (10/14)
Length of Visible Light 12h 10m
Length of Day
11h 18m
Waning Gibbous, 61% of the Moon is Illuminated
Oct 14
Waning Gibbous
Oct 15
Last Quarter
Oct 23
New
Oct 30
First Quarter
Nov 6
Full

Hourly Weather History & Observations

Time (CDT) Temp. Dew Point Humidity Pressure Visibility Wind Dir Wind Speed Gust Speed Precip Events Conditions
12:52 AM 66.0 °F 63.0 °F 90% 29.63 in 10.0 mi SSE 13.8 mph 19.6 mph 0.00 in   Mostly Cloudy
1:20 AM 66.0 °F 64.0 °F 93% 29.65 in 10.0 mi SSE 12.7 mph 23.0 mph N/A   Overcast
1:29 AM 66.0 °F 64.0 °F 93% 29.64 in 10.0 mi SSE 15.0 mph 21.9 mph 0.01 in Rain Light Rain
1:52 AM 66.0 °F 64.0 °F 93% 29.60 in 10.0 mi SSE 12.7 mph 24.2 mph 0.01 in Rain Light Rain
2:12 AM 66.0 °F 64.0 °F 93% 29.62 in 10.0 mi South 12.7 mph 21.9 mph 0.00 in   Overcast
2:30 AM 63.0 °F 61.0 °F 93% 29.62 in 1.8 mi WSW 10.4 mph - 0.10 in Rain Heavy Rain
2:43 AM 62.1 °F 60.1 °F 93% 29.62 in 3.0 mi SW 8.1 mph - 0.16 in Rain Light Rain
2:52 AM 62.1 °F 60.1 °F 93% 29.62 in 3.0 mi SW 10.4 mph 18.4 mph 0.18 in Rain Rain
3:00 AM 61.0 °F 59.0 °F 93% 29.63 in 2.0 mi SW 8.1 mph - 0.06 in Rain Heavy Rain
3:14 AM 61.0 °F 59.0 °F 93% 29.61 in 4.0 mi WSW 10.4 mph - 0.08 in Rain Light Rain
3:27 AM 61.0 °F 59.0 °F 93% 29.61 in 6.0 mi SW 9.2 mph - 0.09 in Rain Light Rain
3:52 AM 60.1 °F 59.0 °F 96% 29.61 in 2.5 mi SW 6.9 mph - 0.12 in Rain Rain
4:00 AM 60.1 °F 59.0 °F 96% 29.61 in 3.0 mi SW 5.8 mph - 0.00 in Rain Light Rain
4:19 AM 61.0 °F 59.0 °F 93% 29.61 in 4.0 mi SW 8.1 mph - 0.03 in Rain Rain
4:52 AM 60.1 °F 59.0 °F 96% 29.59 in 10.0 mi SSW 5.8 mph - 0.09 in Rain Light Rain
5:07 AM 60.1 °F 59.0 °F 96% 29.60 in 4.0 mi South 8.1 mph - 0.03 in Rain Light Rain
5:45 AM 61.0 °F 59.0 °F 93% 29.61 in 10.0 mi South 9.2 mph - 0.04 in   Overcast
5:52 AM 61.0 °F 59.0 °F 93% 29.59 in 10.0 mi South 10.4 mph - 0.04 in   Overcast
6:03 AM 61.0 °F 59.0 °F 93% 29.60 in 10.0 mi South 8.1 mph - N/A   Overcast
6:16 AM 61.0 °F 57.9 °F 90% 29.60 in 10.0 mi South 11.5 mph - N/A   Mostly Cloudy
6:32 AM 60.1 °F 57.9 °F 93% 29.61 in 10.0 mi South 10.4 mph - N/A   Mostly Cloudy
6:52 AM 61.0 °F 57.9 °F 90% 29.60 in 10.0 mi SSW 15.0 mph 24.2 mph N/A   Overcast
7:39 AM 60.1 °F 57.0 °F 90% 29.62 in 10.0 mi SSW 16.1 mph 21.9 mph N/A   Overcast
7:52 AM 60.1 °F 57.0 °F 90% 29.61 in 10.0 mi SW 11.5 mph 18.4 mph N/A   Overcast
8:52 AM 62.1 °F 55.9 °F 80% 29.63 in 10.0 mi SW 18.4 mph 24.2 mph N/A   Mostly Cloudy
9:52 AM 61.0 °F 57.9 °F 90% 29.66 in 4.0 mi SW 10.4 mph 18.4 mph 0.01 in Rain Light Rain
10:19 AM 62.1 °F 57.9 °F 86% 29.66 in 10.0 mi WSW 9.2 mph - 0.00 in   Overcast
10:52 AM 62.1 °F 55.0 °F 78% 29.65 in 10.0 mi WSW 15.0 mph 25.3 mph 0.00 in   Overcast
11:27 AM 61.0 °F 54.0 °F 78% 29.67 in 10.0 mi SW 12.7 mph 20.7 mph N/A   Overcast
11:52 AM 62.1 °F 54.0 °F 75% 29.67 in 10.0 mi SW 10.4 mph 20.7 mph N/A   Overcast
11:59 AM 62.1 °F 54.0 °F 75% 29.68 in 10.0 mi SW 9.2 mph - N/A   Overcast
12:27 PM 62.1 °F 54.0 °F 75% 29.68 in 10.0 mi SW 9.2 mph - 0.00 in   Overcast
12:52 PM 62.1 °F 52.0 °F 70% 29.66 in 10.0 mi SSW 16.1 mph 24.2 mph 0.00 in   Overcast
1:52 PM 63.0 °F 53.1 °F 70% 29.66 in 10.0 mi SSW 16.1 mph 21.9 mph N/A   Overcast
2:52 PM 63.0 °F 52.0 °F 67% 29.68 in 10.0 mi WSW 11.5 mph 20.7 mph N/A   Overcast
3:52 PM 61.0 °F 54.0 °F 78% 29.69 in 10.0 mi SSW 12.7 mph - N/A   Overcast
4:52 PM 61.0 °F 52.0 °F 72% 29.70 in 10.0 mi SW 11.5 mph - 0.00 in   Overcast
5:52 PM 57.9 °F 53.1 °F 84% 29.72 in 10.0 mi SW 11.5 mph 20.7 mph N/A   Overcast
6:52 PM 57.9 °F 53.1 °F 84% 29.74 in 10.0 mi SW 12.7 mph - N/A   Overcast
7:11 PM 57.9 °F 53.1 °F 84% 29.76 in 10.0 mi SW 11.5 mph 18.4 mph N/A   Overcast
7:23 PM 57.0 °F 52.0 °F 83% 29.76 in 10.0 mi SW 10.4 mph - N/A   Overcast
7:33 PM 57.0 °F 52.0 °F 83% 29.76 in 10.0 mi SW 9.2 mph 18.4 mph N/A   Overcast
7:52 PM 57.0 °F 52.0 °F 83% 29.76 in 10.0 mi SW 11.5 mph 19.6 mph N/A   Overcast
8:45 PM 55.9 °F 52.0 °F 87% 29.77 in 10.0 mi SW 10.4 mph - N/A   Mostly Cloudy
8:52 PM 55.9 °F 52.0 °F 87% 29.77 in 10.0 mi SW 9.2 mph - N/A   Mostly Cloudy
9:28 PM 55.9 °F 52.0 °F 87% 29.78 in 10.0 mi SSW 9.2 mph - N/A   Overcast
9:39 PM 55.9 °F 52.0 °F 87% 29.78 in 10.0 mi SW 9.2 mph - N/A   Overcast
9:52 PM 55.9 °F 52.0 °F 87% 29.77 in 10.0 mi SW 10.4 mph 18.4 mph N/A   Overcast
10:31 PM 55.9 °F 52.0 °F 87% 29.78 in 10.0 mi SW 8.1 mph - 0.00 in   Overcast
10:50 PM 55.4 °F 51.8 °F 88% 29.78 in 10.0 mi SW 6.9 mph - 0.00 in Rain Light Rain
10:52 PM 55.9 °F 52.0 °F 87% 29.77 in 10.0 mi WSW 9.2 mph - 0.00 in Rain Light Rain
11:33 PM 55.0 °F 52.0 °F 89% 29.78 in 7.0 mi SW 8.1 mph - 0.00 in Rain Light Rain
11:47 PM 55.4 °F 53.6 °F 94% 29.78 in 10.0 mi WSW 6.9 mph - 0.00 in   Overcast
11:52 PM 55.0 °F 52.0 °F 89% 29.77 in 10.0 mi SW 10.4 mph - 0.00 in   Overcast